361P/Spacewatch (2018)

Japanese version
Home page
Updated on November 7, 2017

---------------------------------------------------------------------

* Profile

Designation 361P/2017 S4
Recovery Date September 24, 2017
Magnitude 18.9 mag
Recoverer Pan-STARRS 1 telescope (Haleakala)

* Pictures

* Orbital Elements

Epoch 2018 July 21.0 TT = JDT 2458320.5
T 2018 July 2.50051 TT                                  MPCW
q   2.7804234            (2000.0)            P               Q
n   0.08960822     Peri.  219.20867     +0.46926827     -0.87795063
a   4.9458106      Node   203.27695     +0.85847940     +0.47872588
e   0.4378225      Incl.   13.88255     +0.20688260     +0.00492097
P  11.00
From 48 observations 2006 Oct. 11-2017 Sept. 27, mean residual 0".3.

* Magnitudes Graph

        m1 = 11.5 + 5 log d + 10.0 log r

---------------------------------------------------------------------

The orbital elements are published on M.P.E.C. 2017-S197.
The magnitudes graphs are made with Comet for Windows.

---------------------------------------------------------------------

Copyright(C) Seiichi Yoshida (comet@aerith.net). All rights reserved.